Regional Weather Roundup
Issued by NWS Sterling, VA

Home | Current Version | Previous Version | Graphics & Text | Print | Product List | Glossary On
Versions: 1 2 3 4 5 6 7 8 9 10 11 12 13 14 15 16 17 18 19 20 21 22 23 24 25 26 27 28 29 30 31 32 33 34 35 36 37 38 39 40 41 42 43 44 45 46 47 48 49 50
000
ASUS41 KLWX 260310
RWRLWX

REGIONAL WEATHER ROUNDUP
NATIONAL WEATHER SERVICE BALTIMORE MD/WASHINGTON DC
1000 PM EST SAT FEB 25 2017

Note: "FAIR" indicates few or no clouds below 12,000 feet
with no significant weather and/or obstructions to visibility.
 TC=TEMPERATURE CELSIUS

 * =Non NWS site. Station does not report precipitation (e.g. rain,
    snow, etc.), thunder, or fog.

DCZ001-MDZ009-015-VAZ040>042-051-053>054-260400-
WASHINGTON METRO

CITY           SKY/WX    TMP DP  RH WIND       PRES   REMARKS
WASHINGTON NAT PTCLDY    49  24  37 NW20G31   29.78R
DULLES         PTCLDY    45  23  42 NW16G25   29.78R
ANDREWS AFB    PTCLDY    48  24  39 NW26      29.76R
FT BELVOIR     PTCLDY    49  24  36 NW15G21   29.78R
QUANTICO       PTCLDY    51  24  34 N15G28    29.77R
COLLEGE PARK*  PTCLDY    46  25  42 W15G22    29.77R
LEESBURG*      CLEAR     45  28  53 MISG      29.79R
MANASSAS*      CLEAR     46  25  43 NW22G30   29.79R
GAITHERSBURG*  CLEAR     43  21  42 W17G24    29.81R

$$

MDZ006>007-011-014-260400-
BALTIMORE METRO

CITY           SKY/WX    TMP DP  RH WIND       PRES   REMARKS
BWI AIRPORT    PTCLDY    47  27  45 NW21G30   29.74R
MD SCIENCE CTR   N/A     50  25  37 MISG      29.74R
MARTIN STATE   PTCLDY    48  34  57 W20G28    29.74R
ANNAPOLIS      MOCLDY    51  28  41 NW16G28   29.74R
FORT MEADE*    PTCLDY    45  27  49 W17G25    29.78R

$$

MDZ012-015-019>023-260400-
MARYLAND EASTERN SHORE

CITY           SKY/WX    TMP DP  RH WIND       PRES   REMARKS
OCEAN CITY     CLOUDY    53  46  77 NW6       29.70R
SALISBURY      CLOUDY    52  41  66 NW9       29.69R
BAY BRIDGE AP* PTCLDY    50  28  43 NW21G36   29.74R
CAMBRIDGE*     MOCLDY    54  34  47 NW15G23   29.72R
EASTON*        CLEAR     52  25  35 NW18G32   29.76R

$$

MDZ017>025-260400-
SOUTHERN MARYLAND

CITY           SKY/WX    TMP DP  RH WIND       PRES   REMARKS
PATUXENT RIVER CLOUDY    52  35  52 NW16      29.72R
ST INIGOES     MOCLDY    54  34  46 NW9       29.72R
LEONARDTOWN*   MOCLDY    52  30  43 NW7       29.74R

$$

MDZ003>005-260400-
NORTH CENTRAL MARYLAND

CITY           SKY/WX    TMP DP  RH WIND       PRES   REMARKS
FREDERICK*     CLEAR     43  28  56 NW13G31   29.82R
HAGERSTOWN APT CLOUDY    42  23  46 W29G38    29.79R
WESTMINSTER*   PTCLDY    43  27  52 W14G24    29.76R

$$

MDZ501>502-260400-
WESTERN MARYLAND

CITY           SKY/WX    TMP DP  RH WIND       PRES   REMARKS
OAKLAND*       CLOUDY    27  21  80 W14G28    29.77S WCI  15
CUMBERLAND*    CLOUDY    37  23  56 W23G39    29.90R WCI  26

$$

VAZ025>031-260400-
SHENANDOAH VALLEY

CITY           SKY/WX    TMP DP  RH WIND       PRES   REMARKS
WINCHESTER*    CLEAR     39  21  48 W18G32    29.80R
FRONT ROYAL*   CLEAR     43  23  45 W16G22    29.78R
LURAY*         PTCLDY    43  25  49 NW16G24   29.82R
NEW MARKET*    PTCLDY    40  19  41 NW9       29.82R
STAUNTON*      CLEAR     39  19  45 W3        29.84R
WAYNESBORO*    CLEAR     40  17  38 W12G20    29.81R

$$

WVZ021-048>050-054>055-260400-
EASTERN WEST VIRGINIA PANHANDLE

CITY           SKY/WX    TMP DP  RH WIND       PRES   REMARKS
MARTINSBURG    CLOUDY    42  21  43 W18       29.79R
PETERSBURG*    MOCLDY    38  23  53 W23G30    29.87R WCI  28

$$

VAZ036>039-050-260400-
CENTRAL FOOTHILLS

CITY           SKY/WX    TMP DP  RH WIND       PRES   REMARKS
CHARLOTTESVILL CLEAR     48  18  30 W8G22     29.77R
CULPEPER*      CLEAR     49  21  32 NW13G18   29.78R
ORANGE*        CLEAR     45  21  39 SW8       29.78R
GORDONSVILLE*  CLEAR     48  19  32 W8G20     29.77R
WARRENTON*     CLEAR     48  18  31 NW9G16    29.77R

$$

VAZ055>057-260400-
NORTH AND CENTRAL PIEDMONT

CITY           SKY/WX    TMP DP  RH WIND       PRES   REMARKS
FREDERICKSBRG* MOCLDY    52  28  38 NW8       29.76R
STAFFORD*      PTCLDY    47  26  43 NW10G21   29.79R

$$

NCZ024-NYZ072-PAZ021-071-VAZ022-071-260400-
OTHER REGIONAL OBSERVATIONS

CITY           SKY/WX    TMP DP  RH WIND       PRES   REMARKS
NEW YORK CITY  CLOUDY    48  41  76 VRB7      29.62R
PHILADELPHIA   CLOUDY    51  44  77 W14       29.69R
PITTSBURGH     FLURRIES  29  18  63 W15       29.91R WCI  18
ROANOKE        CLEAR     42  17  36 W26G38    29.90R
RICHMOND       MOCLDY    55  25  31 NW20G25   29.76R
RALEIGH        CLEAR     58  20  22 NW10G24   29.82R

$$

ANZ530>537-260400-
MARINE OBSERVATIONS

STATION/POSITION TIME  TEMP    WIND        PRES
                       AIR SEA DIR/SP/G
                 (UTC) (F)     (DEG/KT/KT) (MB)
THOMAS PT LIGHT  0300   51 44  320/ 20/ 23   N/A
BALT KEY BRIDGE  0248   50     280/ 17/ 19 1007.0R
COVE POINT       0242   50     350/ 18/ 20 1007.0R
LEWISETTA        0242   53 50  340/  5/  6 1005.9R
SOLOMONS ISLAND  0242   53 46  320/ 12/ 19   N/A
PINEY POINT      0242          360/ 13/ 16   N/A

$$




USA.gov is the U.S. government's official web portal to all federal, state and local government web resources and services.